Theta_e
325 326 328 329 330 335 333 331 332 335 337 338 339 343 346 354 354 353 352 354 352 352 350 347 347 347 347 344 343 340 337 336 329 330 335 336 333 332 333 333 334 333 326
320 321 324 325 328 332 334 333 333 331 333 336 340 341 345 345 346 348 350 353 350 348 347 345 347 348 347 345 341 339 337 336 333 326 331 331 331 332 331 331 333 336 333
317 318 322 326 328 328 331 334 333 332 332 334 336 341 343 343 343 349 352 352 348 347 347 347 347 346 344 342 341 339 336 336 334 330 328 330 330 330 329 330 329 329 329
314 315 317 324 326 328 330 331 332 334 331 331 334 338 341 345 344 347 351 350 347 348 349 349 347 345 344 342 340 337 335 333 333 330 329 327 326 328 329 324 325 326 325
313 314 315 320 324 325 324 326 329 331 333 332 332 336 341 344 346 349 350 349 347 347 347 346 346 342 336 338 339 337 336 333 330 329 326 326 325 324 322 325 324 325 326
312 311 315 317 319 321 323 325 328 330 332 335 332 335 337 343 325 321 340 348 349 347 343 344 343 330 326 324 323 319 330 333 330 328 327 324 324 324 325 325 323 323 318
311 312 311 314 316 318 320 322 323 327 331 333 334 336 338 345 315 313 321 349 347 344 343 343 340 339 331 329 319 315 317 314 320 330 326 325 325 325 326 324 324 324 321
311 311 311 311 314 316 318 320 323 327 330 331 334 337 341 343 309 309 316 347 345 344 344 344 341 338 337 335 331 330 330 328 327 330 330 328 329 330 329 327 326 324 325
308 310 311 311 311 316 316 319 324 328 329 330 333 337 341 337 305 308 328 343 342 340 342 341 339 337 312 314 333 330 329 325 311 309 310 310 311 312 320 328 324 322 318
309 310 312 311 309 312 317 319 323 327 329 329 331 338 332 339 306 309 330 341 338 337 333 328 312 327 303 308 333 330 327 327 324 324 322 314 315 316 312 330 326 322 320
310 311 312 311 310 312 319 321 322 325 327 329 333 338 341 335 321 308 312 338 336 334 333 332 324 300 299 302 309 331 324 327 319 325 326 327 327 326 326 327 327 325 322
310 311 312 313 313 316 319 320 323 325 326 329 332 336 339 332 310 306 311 321 322 332 330 330 313 297 298 302 313 299 302 314 326 324 324 324 323 324 325 326 327 327 329
310 311 312 314 316 316 318 320 321 324 326 328 331 332 332 324 317 301 302 307 311 330 330 310 298 297 298 303 298 298 305 326 325 324 323 323 326 328 329 327 329 329 328
308 310 312 314 314 317 318 320 322 325 327 329 330 327 328 326 325 321 319 316 308 311 308 313 311 309 307 311 312 311 325 328 326 323 322 324 326 327 325 326 324 325 323
308 310 312 313 315 317 318 319 324 328 328 330 331 330 327 325 326 319 322 327 327 319 320 322 323 323 322 322 323 324 325 327 326 326 324 324 323 323 322 326 324 324 320
308 310 312 313 314 317 319 313 300 307 303 305 310 323 327 311 303 303 302 302 303 306 322 323 323 324 323 323 323 325 325 321 325 327 324 323 321 321 320 322 324 321 320
309 312 314 313 316 318 318 315 309 307 302 301 302 303 306 302 300 301 301 301 302 305 325 325 324 323 322 323 324 324 323 324 324 324 324 323 322 322 317 321 321 321 319
315 306 319 321 320 321 321 321 323 321 317 312 298 301 298 297 296 296 298 306 317 318 327 323 324 324 323 324 323 324 324 324 324 323 322 320 323 322 321 320 321 320 320
318 318 321 324 325 322 325 326 325 321 315 310 310 303 297 295 296 298 301 324 323 326 325 324 326 325 323 324 325 324 324 324 323 323 322 322 322 322 321 321 319 305 307
317 310 317 325 324 326 326 325 322 321 320 319 316 313 312 315 319 320 325 325 326 324 325 325 326 326 326 326 325 324 323 321 322 323 323 323 322 322 321 321 320 318 318
324 323 313 325 326 326 326 323 323 323 321 318 316 315 300 322 322 323 324 325 326 326 326 325 325 326 326 325 325 323 323 322 322 322 323 323 323 321 322 321 321 322 321
326 326 326 325 325 324 324 324 323 322 319 318 318 308 292 324 324 324 324 324 324 326 327 327 325 324 326 325 323 323 323 323 323 325 324 323 323 321 322 323 321 321 320
326 325 325 325 324 314 321 321 320 319 318 319 318 318 320 320 321 321 322 324 323 321 321 323 322 325 327 325 323 325 325 325 326 327 326 324 323 324 322 319 315 312 308
325 325 326 325 324 322 319 318 318 310 316 314 312 312 313 314 313 313 314 316 317 316 315 314 314 316 316 317 317 313 311 322 324 324 323 320 315 311 310 308 307 304 302
325 325 324 323 319 317 317 317 316 314 311 309 308 308 308 308 307 308 308 308 309 310 309 309 308 305 306 305 304 303 291 291 308 301 311 308 304 303 302 301 301 300 300
324 322 321 321 320 318 316 313 311 308 306 305 305 306 304 304 301 302 301 301 302 300 299 299 298 299 297 295 293 288 288 289 296 292 306 305 305 303 302 301 299 297 297
Wind_Speed
10 8 7 6 7 6 6 7 8 9 10 10 12 11 10 10 11 10 12 12 16 11 9 9 9 7 5 4 4 3 4 4 3 1 3 3 2 2 1 1 4 3 4
7 9 8 8 8 6 6 8 9 10 10 11 12 13 13 13 12 12 14 14 12 11 11 10 11 9 8 5 4 6 6 1 4 5 4 3 3 4 2 2 2 1 3
12 10 9 7 6 7 8 8 9 11 12 13 13 13 14 13 12 14 14 13 11 14 13 13 10 10 8 5 5 5 3 4 3 3 3 2 2 1 2 2 2 2 3
13 14 15 8 7 7 7 8 11 12 13 13 14 15 14 15 16 15 14 13 14 14 12 11 9 8 9 7 5 5 3 1 3 4 4 3 2 2 0 2 1 0 2
12 19 18 13 9 10 9 11 13 13 13 14 15 14 13 12 11 16 14 14 13 11 10 10 7 7 10 8 4 5 5 4 2 3 3 3 3 3 4 3 3 3 1
13 16 20 17 11 11 11 13 13 14 14 13 14 14 13 11 15 17 15 13 12 10 9 7 5 9 9 11 11 5 7 5 4 3 3 4 5 4 3 4 4 3 3
15 17 15 17 13 13 14 14 14 14 14 14 13 14 13 12 14 15 17 10 9 10 9 7 7 6 10 8 8 9 8 8 4 4 4 5 5 6 5 5 5 5 2
17 16 15 15 23 15 16 16 14 14 13 12 12 14 12 11 12 16 16 12 10 10 8 7 6 6 9 9 9 7 7 5 4 3 1 3 3 5 6 5 5 3 3
20 19 16 18 19 15 16 14 11 11 10 12 11 14 13 5 9 16 14 14 10 7 7 5 7 7 9 6 7 6 5 6 5 7 2 6 8 7 6 4 5 4 2
17 17 17 17 17 16 16 11 11 13 9 11 13 13 14 8 13 18 13 9 10 7 8 7 11 8 9 10 5 5 6 6 5 5 3 4 5 3 9 5 4 5 3
16 16 17 18 15 17 16 10 12 12 10 12 13 12 12 13 10 8 9 9 9 8 8 6 5 11 10 8 4 4 4 7 6 4 4 4 4 4 3 2 2 3 2
15 15 16 17 13 13 12 11 12 13 12 13 13 13 8 9 12 7 9 10 13 8 7 6 7 10 10 8 6 10 9 7 4 4 4 3 4 3 3 3 3 3 4
15 16 16 16 14 14 13 12 10 12 12 14 13 11 9 9 7 12 11 13 13 11 8 12 14 11 12 9 8 9 7 3 4 3 4 3 4 4 5 4 4 6 2
15 17 15 15 14 13 11 9 10 11 12 12 12 9 10 11 9 8 9 11 18 14 16 11 10 9 3 8 5 4 1 3 3 4 2 1 2 3 3 4 3 3 2
16 16 14 11 12 11 11 9 12 13 15 13 12 12 13 12 11 12 12 10 10 12 13 9 7 6 6 5 5 6 5 4 3 4 4 3 3 3 1 3 3 4 3
14 11 10 9 10 10 10 4 10 2 8 13 15 12 8 14 15 14 13 17 21 16 9 8 8 7 7 6 6 4 4 4 4 5 4 4 4 3 3 3 2 2 2
15 12 9 10 10 10 9 9 9 10 23 14 19 19 15 15 17 17 20 21 18 10 7 6 7 7 6 5 4 4 3 4 4 4 4 4 4 3 3 3 3 3 1
13 13 11 11 10 11 11 12 12 12 13 10 14 12 19 19 20 19 18 14 6 3 5 6 6 5 5 4 4 4 4 4 4 3 3 2 2 3 3 2 1 3 1
8 7 7 9 13 14 11 16 13 13 13 12 11 13 13 17 18 16 12 8 7 5 5 5 6 4 4 4 5 5 4 4 3 4 2 3 3 2 3 2 3 5 2
3 12 12 11 11 17 11 14 12 13 13 12 11 10 6 11 8 7 5 6 6 5 5 5 3 2 6 6 5 6 5 4 3 3 3 3 3 0 3 2 3 3 3
7 10 14 11 11 11 12 13 11 12 12 11 10 8 10 10 9 7 6 6 5 6 6 5 4 4 4 5 5 4 5 3 3 3 4 3 4 2 2 2 2 1 2
10 11 11 12 9 10 10 12 12 12 13 12 10 5 7 7 8 7 7 7 7 6 4 5 4 3 5 4 5 4 4 5 4 3 3 3 4 3 3 3 2 1 4
8 8 11 12 11 9 13 12 12 12 12 12 10 7 8 8 9 8 8 7 7 6 4 7 6 8 8 7 6 7 6 5 3 2 4 5 5 5 6 6 7 6 6
5 13 12 13 12 12 13 11 12 12 11 12 10 9 10 9 10 10 8 8 9 10 10 11 10 12 9 8 7 6 5 4 6 7 9 8 7 7 8 8 8 9 6
12 12 13 12 13 12 12 13 11 11 11 11 10 10 9 10 10 10 9 9 10 11 12 10 9 11 12 12 10 9 8 11 10 9 8 11 11 11 9 7 6 5 6
12 12 10 11 12 12 11 11 11 11 11 10 10 10 9 10 10 9 9 10 10 11 12 9 12 14 12 10 11 10 11 11 9 10 8 7 7 7 6 7 10 7 7
Wind_Direction
220 225 229 235 245 244 231 235 233 241 247 251 264 269 251 221 216 220 224 224 217 211 207 209 211 209 232 193 163 186 218 199 209 293 96 93 102 89 235 213 145 210 162
254 255 228 237 239 230 241 233 240 252 255 253 246 247 248 235 226 224 227 218 210 202 207 202 205 202 222 201 186 205 214 195 211 166 141 146 202 159 228 170 342 249 185
308 290 270 225 242 237 240 250 237 242 247 253 253 247 234 236 241 221 222 212 202 205 205 206 194 192 199 204 199 198 188 192 192 141 143 138 115 113 111 72 31 330 63
298 290 283 262 248 243 248 255 266 249 241 246 246 243 242 223 225 222 211 208 215 203 202 199 199 194 190 186 183 208 220 279 172 119 139 146 144 120 104 131 123 46 130
309 303 275 261 251 249 253 259 255 258 258 242 247 251 238 239 224 205 198 202 210 198 200 195 184 191 175 158 179 208 201 177 174 147 145 146 150 148 185 171 152 195 116
287 279 292 253 251 258 253 251 254 254 259 253 248 257 246 230 233 183 188 197 206 182 174 172 155 117 103 119 109 98 207 182 164 165 180 181 177 163 190 163 159 185 177
266 271 287 297 255 261 258 257 259 257 257 255 245 250 243 238 224 188 181 181 187 182 172 161 150 141 135 131 105 106 90 106 132 185 195 201 164 175 167 190 186 208 180
274 262 268 272 268 247 250 253 249 250 249 247 251 246 245 250 167 196 176 164 176 167 153 147 152 156 176 161 155 163 154 154 151 162 158 186 161 190 177 181 170 146 92
256 258 261 268 276 277 254 254 270 241 246 256 249 244 242 196 193 173 161 155 153 154 142 147 153 136 140 116 157 168 164 121 66 73 89 146 149 171 215 149 161 150 129
258 258 261 251 257 268 267 265 274 274 269 258 251 240 239 168 196 182 143 149 144 147 101 97 78 112 149 148 156 171 160 141 137 137 126 95 136 141 161 182 161 174 167
257 257 247 246 250 261 249 250 267 271 268 266 253 239 213 170 178 196 120 146 148 148 131 133 101 119 127 118 108 138 170 141 162 183 163 143 146 147 156 122 168 154 235
253 259 250 246 242 250 242 246 256 259 258 254 242 227 175 150 142 126 96 135 147 145 139 115 113 119 119 111 99 123 117 123 142 158 153 155 153 158 172 181 194 255 259
251 246 247 245 247 238 239 243 251 253 244 240 220 185 159 132 112 102 101 101 107 115 115 108 116 119 113 86 114 122 135 135 151 145 152 174 172 170 147 169 207 218 213
244 250 242 235 233 240 242 246 249 243 232 211 178 164 146 134 128 121 110 96 92 93 106 112 119 106 114 109 111 143 221 168 182 155 139 138 130 125 172 182 195 217 184
241 243 238 233 233 239 247 257 246 235 208 185 162 158 144 151 149 135 128 125 127 122 115 122 130 127 126 145 162 178 185 188 158 140 164 188 177 135 261 228 215 211 214
233 230 228 222 223 231 230 184 25 236 172 161 143 143 126 123 128 122 114 116 120 133 130 143 147 150 159 165 176 174 181 186 166 161 178 164 166 174 206 240 246 222 243
226 222 223 220 223 223 184 170 117 83 75 77 114 114 117 126 117 122 126 127 139 141 146 143 144 149 158 177 173 138 121 133 147 160 169 168 162 159 165 215 221 202 193
209 207 220 215 202 166 151 153 140 131 114 95 47 95 116 118 117 119 118 108 123 78 118 132 147 154 165 159 145 111 110 114 94 116 113 125 130 172 194 202 87 94 80
184 194 211 179 147 145 152 131 117 111 107 106 103 75 72 91 112 126 142 135 151 135 136 138 150 152 151 136 123 129 126 120 125 112 89 138 105 132 104 125 115 81 76
198 157 154 134 148 145 138 109 117 110 113 114 111 115 120 117 121 139 155 144 134 129 133 128 141 158 138 136 142 112 110 126 150 143 162 161 133 186 137 162 137 156 207
147 124 121 113 107 114 111 115 120 117 112 106 112 127 119 126 138 145 124 117 127 131 134 138 148 155 143 115 111 119 137 149 171 161 141 128 156 153 128 233 217 51 198
121 130 127 120 105 102 109 112 106 105 109 119 119 104 134 129 107 112 103 92 82 86 109 112 104 106 101 118 122 134 161 173 187 183 171 171 157 153 208 219 157 24 79
112 105 118 110 109 112 96 97 104 106 116 117 109 105 106 97 96 93 102 99 91 78 59 100 94 91 84 79 70 61 70 76 102 137 130 92 66 85 73 68 72 66 51
105 113 116 120 119 97 96 99 98 104 106 100 97 94 90 89 91 89 89 87 86 81 71 65 56 59 67 61 63 52 19 29 72 67 82 90 69 65 63 64 63 65 69
92 95 102 94 92 103 107 106 110 106 100 98 98 101 100 96 85 82 77 74 72 73 66 64 64 61 58 64 67 71 51 51 69 80 82 92 94 90 90 92 90 75 69
100 99 101 111 113 111 107 105 100 97 98 102 104 105 101 96 85 85 83 76 78 76 77 69 66 66 63 58 63 61 59 57 68 74 87 92 103 107 103 94 94 81 76